Location: Bruch
(44.2051°N, 0.4120°E)
Time: 03:42:29
(UTC+00:00)

BREEZE M DEB (TANK) - Pass Details

Date: 29 November 2020
Orbit: 289 x 16164 km, 49.5° (Epoch: 24 January)

Event Time Altitude Azimuth Distance (km) Brightness Sun altitude
Rises 05:26:21 0° 230° (SW) 7,832 7.8 -18.4°
Reaches altitude 10° 05:33:45 10° 229° (SW) 4,810 6.7 -17.1°
Maximum altitude 05:43:08 58° 153° (SSE) 871 3.5 -15.5°
Drops below altitude 10° 05:46:09 10° 73° (ENE) 1,601 5.6 -14.9°
Sets 05:47:29 0° 68° (ENE) 2,231 6.3 -14.7°
